When you browse on this site, cookies collect data to enhance your experience and personalize the content and advertising you see.
Visit our Privacy Policy to learn more. By continuing to use the site, you agree to this use of cookies and data.

Hourly Weather Kolotovschina

Today, 20 September, Sunday

Time Temperature Precipitation Wind Pressure Humidity
00:00 +6°C° 0 mm 2 mps 746 mmHg 92%
01:00 +5°C° 0 mm 2 mps 746 mmHg 94%
02:00 +5°C° 0 mm 2 mps 746 mmHg 97%
03:00 +5°C° 0 mm 2 mps 747 mmHg 97%
04:00 +5°C° 0 mm 2 mps 747 mmHg 97%
05:00 +4°C° 0 mm 2 mps 747 mmHg 97%
06:00 +6°C° 0 mm 2 mps 747 mmHg 93%
07:00 +7°C° 0 mm 2 mps 748 mmHg 89%
08:00 +8°C° 0 mm 3 mps 748 mmHg 83%
09:00 +9°C° 0 mm 3 mps 748 mmHg 75%
10:00 +11°C° 0 mm 3 mps 749 mmHg 67%
11:00 +12°C° 0 mm 3 mps 749 mmHg 59%
12:00 +13°C° 0 mm 3 mps 749 mmHg 58%
13:00 +13°C° 0 mm 3 mps 748 mmHg 58%
14:00 +13°C° 0 mm 3 mps 748 mmHg 57%
15:00 +14°C° 0 mm 2 mps 748 mmHg 63%
16:00 +13°C° 0 mm 2 mps 748 mmHg 68%
17:00 +12°C° 0 mm 2 mps 748 mmHg 74%
18:00 +10°C° 0 mm 2 mps 748 mmHg 79%
19:00 +8°C° 0 mm 2 mps 748 mmHg 84%
20:00 +7°C° 0 mm 2 mps 748 mmHg 89%
21:00 +6°C° 0 mm 2 mps 748 mmHg 90%
22:00 +6°C° 0 mm 2 mps 748 mmHg 91%
23:00 +6°C° 0 mm 2 mps 748 mmHg 93%

Tomorrow, 21 September, Monday

Time Temperature Precipitation Wind Pressure Humidity
00:00 +5°C° 0 mm 2 mps 748 mmHg 93%
01:00 +5°C° 0 mm 2 mps 748 mmHg 93%
02:00 +5°C° 0 mm 2 mps 748 mmHg 93%
03:00 +5°C° 0 mm 2 mps 747 mmHg 94%
04:00 +5°C° 0 mm 2 mps 747 mmHg 94%
05:00 +5°C° 0 mm 2 mps 747 mmHg 95%
06:00 +6°C° 0 mm 2 mps 747 mmHg 90%
07:00 +7°C° 0 mm 3 mps 747 mmHg 85%
08:00 +8°C° 0 mm 3 mps 747 mmHg 81%
09:00 +10°C° 0 mm 3 mps 747 mmHg 77%
10:00 +12°C° 0 mm 3 mps 747 mmHg 73%
11:00 +14°C° 0 mm 4 mps 747 mmHg 69%
12:00 +15°C° 0 mm 4 mps 746 mmHg 68%
13:00 +15°C° 0 mm 4 mps 746 mmHg 67%
14:00 +17°C° 0 mm 4 mps 746 mmHg 67%
15:00 +17°C° 0 mm 4 mps 746 mmHg 72%
16:00 +16°C° 0 mm 3 mps 746 mmHg 77%
17:00 +15°C° 0 mm 2 mps 745 mmHg 82%
18:00 +15°C° 0 mm 2 mps 745 mmHg 86%
19:00 +13°C° 0 mm 3 mps 745 mmHg 89%
20:00 +12°C° 0 mm 3 mps 745 mmHg 92%
21:00 +12°C° 0 mm 3 mps 745 mmHg 92%
22:00 +12°C° 0 mm 3 mps 745 mmHg 92%
23:00 +12°C° 0 mm 3 mps 745 mmHg 91%

Day after tomorrow, 22 September, Tuesday

Time Temperature Precipitation Wind Pressure Humidity
00:00 +11°C° 0 mm 3 mps 745 mmHg 91%
01:00 +11°C° 0 mm 4 mps 744 mmHg 91%
02:00 +11°C° 0 mm 4 mps 744 mmHg 91%
03:00 +11°C° 0 mm 4 mps 744 mmHg 92%
04:00 +10°C° 0 mm 4 mps 744 mmHg 93%
05:00 +10°C° 0 mm 3 mps 744 mmHg 94%
06:00 +11°C° 0 mm 4 mps 744 mmHg 89%
07:00 +12°C° 0 mm 4 mps 744 mmHg 84%
08:00 +12°C° 0 mm 4 mps 744 mmHg 79%
09:00 +14°C° 0 mm 4 mps 744 mmHg 72%
10:00 +17°C° 0 mm 4 mps 744 mmHg 66%
11:00 +18°C° 0 mm 4 mps 744 mmHg 59%
12:00 +19°C° 0 mm 4 mps 744 mmHg 59%
13:00 +20°C° 0 mm 4 mps 744 mmHg 58%
14:00 +20°C° 0 mm 4 mps 744 mmHg 57%
15:00 +19°C° 0 mm 4 mps 743 mmHg 64%
16:00 +18°C° 0 mm 3 mps 743 mmHg 71%
17:00 +17°C° 0 mm 2 mps 743 mmHg 77%
18:00 +16°C° 0 mm 2 mps 743 mmHg 83%
19:00 +15°C° 0 mm 2 mps 744 mmHg 88%
20:00 +13°C° 0 mm 2 mps 744 mmHg 94%
21:00 +13°C° 0 mm 2 mps 744 mmHg 94%
22:00 +12°C° 0 mm 2 mps 744 mmHg 95%
23:00 +12°C° 0 mm 1 mps 744 mmHg 95%

23 September, Wednesday

Time Temperature Precipitation Wind Pressure Humidity
00:00 +12°C° 0 mm 1 mps 744 mmHg 95%
01:00 +12°C° 0 mm 1 mps 744 mmHg 96%
02:00 +11°C° 0 mm 1 mps 744 mmHg 96%
03:00 +11°C° 0 mm 1 mps 744 mmHg 96%
04:00 +11°C° 0 mm 1 mps 744 mmHg 96%
05:00 +11°C° 0 mm 1 mps 744 mmHg 96%
06:00 +12°C° 0 mm 2 mps 744 mmHg 93%
07:00 +13°C° 0 mm 2 mps 744 mmHg 90%
08:00 +14°C° 0 mm 2 mps 744 mmHg 87%
09:00 +16°C° 0 mm 2 mps 744 mmHg 80%
10:00 +18°C° 0 mm 2 mps 744 mmHg 74%
11:00 +19°C° 0 mm 3 mps 744 mmHg 67%
12:00 +20°C° 0 mm 3 mps 744 mmHg 63%
13:00 +21°C° 0 mm 3 mps 744 mmHg 59%
14:00 +22°C° 0 mm 3 mps 744 mmHg 56%
15:00 +20°C° 0 mm 3 mps 743 mmHg 61%
16:00 +19°C° 0 mm 3 mps 743 mmHg 66%
17:00 +17°C° 0 mm 2 mps 743 mmHg 72%
18:00 +16°C° 0 mm 2 mps 743 mmHg 74%
19:00 +15°C° 0 mm 2 mps 743 mmHg 77%
20:00 +14°C° 0 mm 2 mps 743 mmHg 79%
21:00 +13°C° 0 mm 2 mps 743 mmHg 79%
22:00 +13°C° 0 mm 2 mps 743 mmHg 78%
23:00 +12°C° 0 mm 2 mps 743 mmHg 78%

24 September, Thursday

Time Temperature Precipitation Wind Pressure Humidity
00:00 +12°C° 0 mm 2 mps 743 mmHg 78%
01:00 +10°C° 0 mm 2 mps 743 mmHg 78%
02:00 +10°C° 0 mm 2 mps 743 mmHg 78%
03:00 +9°C° 0 mm 2 mps 743 mmHg 77%
04:00 +9°C° 0 mm 2 mps 743 mmHg 77%
05:00 +9°C° 0 mm 2 mps 743 mmHg 77%
06:00 +10°C° 0 mm 3 mps 743 mmHg 72%
07:00 +11°C° 0 mm 3 mps 743 mmHg 68%
08:00 +12°C° 0 mm 3 mps 743 mmHg 64%
09:00 +13°C° 0 mm 3 mps 743 mmHg 61%
10:00 +16°C° 0 mm 3 mps 743 mmHg 58%
11:00 +17°C° 0 mm 3 mps 743 mmHg 55%
12:00 +18°C° 0 mm 3 mps 744 mmHg 54%
13:00 +19°C° 0 mm 3 mps 744 mmHg 54%
14:00 +20°C° 0 mm 3 mps 744 mmHg 54%
15:00 +19°C° 0 mm 3 mps 744 mmHg 60%
16:00 +18°C° 0 mm 3 mps 743 mmHg 66%
17:00 +17°C° 0 mm 3 mps 743 mmHg 72%
18:00 +16°C° 0 mm 3 mps 743 mmHg 75%
19:00 +14°C° 0 mm 3 mps 743 mmHg 78%
20:00 +13°C° 0 mm 3 mps 744 mmHg 81%
21:00 +12°C° 0 mm 3 mps 744 mmHg 81%
22:00 +12°C° 0 mm 3 mps 744 mmHg 81%
23:00 +11°C° 0 mm 3 mps 744 mmHg 81%

25 September, Friday

Time Temperature Precipitation Wind Pressure Humidity
00:00 +12°C° 0 mm 2 mps 744 mmHg 81%
01:00 +12°C° 0 mm 2 mps 744 mmHg 81%
02:00 +10°C° 0 mm 2 mps 744 mmHg 81%
03:00 +10°C° 0 mm 2 mps 744 mmHg 80%
04:00 +10°C° 0 mm 2 mps 744 mmHg 78%
05:00 +10°C° 0 mm 2 mps 744 mmHg 77%
06:00 +11°C° 0 mm 3 mps 744 mmHg 72%
07:00 +12°C° 0 mm 3 mps 744 mmHg 68%
08:00 +13°C° 0 mm 3 mps 744 mmHg 63%
09:00 +14°C° 0 mm 3 mps 744 mmHg 60%
10:00 +17°C° 0 mm 3 mps 744 mmHg 57%
11:00 +19°C° 0 mm 3 mps 744 mmHg 54%
12:00 +20°C° 0 mm 3 mps 744 mmHg 54%
13:00 +20°C° 0 mm 3 mps 744 mmHg 53%
14:00 +21°C° 0 mm 3 mps 744 mmHg 53%
15:00 +20°C° 0 mm 3 mps 743 mmHg 59%
16:00 +19°C° 0 mm 3 mps 743 mmHg 65%
17:00 +18°C° 0 mm 3 mps 743 mmHg 71%
18:00 +17°C° 0 mm 3 mps 743 mmHg 73%
19:00 +16°C° 0 mm 3 mps 742 mmHg 75%
20:00 +14°C° 0 mm 3 mps 742 mmHg 77%
21:00 +14°C° 0 mm 3 mps 742 mmHg 77%
22:00 +13°C° 0 mm 3 mps 742 mmHg 77%
23:00 +13°C° 0 mm 3 mps 742 mmHg 76%
Show more